AMX25 MMMX-EHAM

Flight info

Callsign AMX25
Flight time N/A
Altitude 39000
Route IKLAN2A IKLAN UT140 TAM J177 PSX J29 IAH J101 LIT DCT FAM DCT BVT DCT CRL DCT YXU DCT YXI DCT BAREE/N0498F410 N673B PELTU/M085F410 DCT 53N050W 54N040W 54N030W 54N020W DCT DOGAL/N0490F410 DCT BEXET DCT LIFFY UL975 WAL M16 DOLAS L603 LAMSO
Aircraft B788/H-SDE1E2E3FGHIJ2J3J4J5M1RWXY/LB1D1

Departure

Time 2026-05-05 06:13
Airport Mexico City Benito Juárez International Airport (MMMX)

Arrival

Time N/A
Airport Amsterdam Airport Schiphol (EHAM)
Time Latitude Longitude Altitude Speed Heading
2026-05-05 05:57 19.42300 -99.08092 7308 ft 0 kts 166°
2026-05-05 06:07 19.42312 -99.08095 7314 ft 2 kts 166°
2026-05-05 06:07 19.42328 -99.08099 7317 ft 2 kts 167°
2026-05-05 06:07 19.42344 -99.08103 7309 ft 2 kts 167°
2026-05-05 06:07 19.42360 -99.08107 7309 ft 2 kts 168°
2026-05-05 06:08 19.42376 -99.08110 7309 ft 2 kts 170°
2026-05-05 06:08 19.42393 -99.08113 7309 ft 2 kts 172°
2026-05-05 06:08 19.42409 -99.08115 7309 ft 2 kts 175°
2026-05-05 06:08 19.42426 -99.08116 7308 ft 2 kts 183°
2026-05-05 06:09 19.42442 -99.08114 7309 ft 2 kts 201°
2026-05-05 06:09 19.42456 -99.08106 7309 ft 2 kts 238°
2026-05-05 06:09 19.42460 -99.08100 7308 ft 0 kts 241°
2026-05-05 06:10 19.42450 -99.08119 7309 ft 8 kts 240°
2026-05-05 06:10 19.42415 -99.08192 7308 ft 6 kts 268°
2026-05-05 06:10 19.42449 -99.08239 7308 ft 12 kts 317°
2026-05-05 06:11 19.42497 -99.08272 7308 ft 12 kts 328°
2026-05-05 06:11 19.42566 -99.08345 7308 ft 9 kts 295°
2026-05-05 06:11 19.42606 -99.08439 7308 ft 19 kts 294°
2026-05-05 06:11 19.42665 -99.08568 7309 ft 1 kts 316°
2026-05-05 06:12 19.42676 -99.08569 7309 ft 2 kts 352°
2026-05-05 06:12 19.42704 -99.08555 7310 ft 18 kts 31°
2026-05-05 06:12 19.42903 -99.08223 7309 ft 90 kts 59°
2026-05-05 06:12 19.43341 -99.07443 7310 ft 154 kts 59°
2026-05-05 06:13 19.43985 -99.06292 7328 ft 205 kts 60°
2026-05-05 06:13 19.44726 -99.05022 8349 ft 205 kts 59°
2026-05-05 06:13 19.45543 -99.03759 9001 ft 215 kts 57°
2026-05-05 06:13 19.46116 -99.02820 9103 ft 234 kts 59°
2026-05-05 06:14 19.47354 -99.00713 9253 ft 276 kts 59°
2026-05-05 06:14 19.48421 -98.98900 9418 ft 303 kts 58°
2026-05-05 06:14 19.49158 -98.97652 10160 ft 297 kts 59°
2026-05-05 06:14 19.50613 -98.94987 10759 ft 330 kts 59°
2026-05-05 06:15 19.51919 -98.92892 11169 ft 350 kts 55°
2026-05-05 06:15 19.52884 -98.91488 11496 ft 360 kts 53°
2026-05-05 06:15 19.54477 -98.89381 12082 ft 372 kts 50°
2026-05-05 06:15 19.56819 -98.86642 12952 ft 382 kts 46°
2026-05-05 06:16 19.58731 -98.84651 13686 ft 388 kts 43°
2026-05-05 06:16 19.60758 -98.82739 14376 ft 391 kts 40°
2026-05-05 06:16 19.62884 -98.80925 15053 ft 394 kts 38°
2026-05-05 06:16 19.65111 -98.79208 15744 ft 396 kts 35°
2026-05-05 06:17 19.67422 -98.77603 16429 ft 398 kts 32°
2026-05-05 06:17 19.69617 -98.75924 16947 ft 405 kts 44°
2026-05-05 06:17 19.71643 -98.73844 17648 ft 408 kts 38°
2026-05-05 06:17 19.73239 -98.72784 18090 ft 411 kts 27°
2026-05-05 06:18 19.75954 -98.71806 18682 ft 417 kts 12°
2026-05-05 06:18 19.78868 -98.71641 19210 ft 423 kts 356°
2026-05-05 06:18 19.81755 -98.72298 19722 ft 428 kts 342°
2026-05-05 06:18 19.84538 -98.73475 20261 ft 432 kts 338°
2026-05-05 06:19 19.87302 -98.74769 20796 ft 434 kts 338°
2026-05-05 06:19 19.91053 -98.76299 21464 ft 437 kts 344°
2026-05-05 06:19 19.93042 -98.76848 21783 ft 439 kts 348°
2026-05-05 06:19 19.97034 -98.77647 22400 ft 442 kts 351°
2026-05-05 06:20 19.99051 -98.78032 22691 ft 444 kts 349°
2026-05-05 06:20 20.02107 -98.78784 23136 ft 447 kts 346°
2026-05-05 06:20 20.06715 -98.80031 23755 ft 450 kts 347°
2026-05-05 06:20 20.23282 -98.84083 25644 ft 462 kts 347°
2026-05-05 06:21 20.31649 -98.86153 26523 ft 468 kts 346°
2026-05-05 06:21 20.44567 -98.87792 27807 ft 478 kts 11°
2026-05-05 06:21 20.56766 -98.81690 28907 ft 490 kts 25°
2026-05-05 06:21 20.69023 -98.75021 29893 ft 499 kts 25°
2026-05-05 06:22 20.81462 -98.68212 30690 ft 507 kts 25°
2026-05-05 06:22 20.94137 -98.61251 31384 ft 514 kts 25°
2026-05-05 06:22 21.06869 -98.54242 32249 ft 514 kts 25°
2026-05-05 06:22 21.30185 -98.41367 33943 ft 515 kts 25°
2026-05-05 06:23 21.55368 -98.27413 36176 ft 502 kts 25°
2026-05-05 06:23 21.79578 -98.13937 38221 ft 492 kts 25°
2026-05-05 06:23 21.90863 -98.07645 38922 ft 491 kts 24°
2026-05-05 06:23 21.93904 -98.05947 38915 ft 493 kts 24°
2026-05-05 06:24 21.99961 -98.02570 38917 ft 492 kts 24°
2026-05-05 06:24 22.06060 -97.99163 38915 ft 495 kts 24°
2026-05-05 06:25 22.12199 -97.95719 38920 ft 497 kts 24°
2026-05-05 06:25 22.18352 -97.92273 38925 ft 499 kts 24°
2026-05-05 06:26 22.24530 -97.88803 38930 ft 501 kts 24°
2026-05-05 06:26 22.30907 -97.85898 38948 ft 495 kts
2026-05-05 06:27 22.40972 -97.83570 38941 ft 496 kts
2026-05-05 06:28 22.47729 -97.82026 38935 ft 497 kts
2026-05-05 06:28 22.54505 -97.80472 38938 ft 498 kts
2026-05-05 06:29 22.61300 -97.78919 38942 ft 499 kts
2026-05-05 06:29 22.68111 -97.77351 38943 ft 501 kts
2026-05-05 06:30 22.74936 -97.75788 38938 ft 501 kts
2026-05-05 06:30 22.81763 -97.74219 38946 ft 502 kts
2026-05-05 06:31 22.88566 -97.72655 38947 ft 502 kts
2026-05-05 06:31 22.95410 -97.71080 38942 ft 503 kts
2026-05-05 06:32 23.02265 -97.69500 38941 ft 503 kts
2026-05-05 06:32 23.09108 -97.67919 38933 ft 500 kts
2026-05-05 06:33 23.15902 -97.66348 38929 ft 499 kts
2026-05-05 06:33 23.22653 -97.64804 38930 ft 499 kts
2026-05-05 06:34 23.29466 -97.63269 38929 ft 501 kts
2026-05-05 06:34 23.36291 -97.61704 38935 ft 502 kts
2026-05-05 06:35 23.43142 -97.60146 38932 ft 503 kts
2026-05-05 06:35 23.49999 -97.58580 38931 ft 503 kts
2026-05-05 06:36 23.56858 -97.57015 38934 ft 504 kts
2026-05-05 06:36 23.63729 -97.55444 38926 ft 504 kts
2026-05-05 06:37 23.70564 -97.53880 38925 ft 505 kts
2026-05-05 06:37 23.77447 -97.52298 38932 ft 507 kts
2026-05-05 06:38 23.84342 -97.50737 38924 ft 504 kts
2026-05-05 06:38 23.91194 -97.49133 38926 ft 502 kts
2026-05-05 06:39 23.98035 -97.47677 38946 ft 502 kts
2026-05-05 06:39 24.04923 -97.46342 39030 ft 499 kts
2026-05-05 06:40 24.11810 -97.45122 38821 ft 505 kts
2026-05-05 06:40 24.15282 -97.44569 38926 ft 503 kts
2026-05-05 06:40 24.18725 -97.44055 39183 ft 496 kts
2026-05-05 06:41 24.25609 -97.43124 38877 ft 504 kts
2026-05-05 06:41 24.32529 -97.42327 38963 ft 499 kts
2026-05-05 06:41 24.35968 -97.41983 39129 ft 495 kts
2026-05-05 06:42 24.39409 -97.41674 39021 ft 498 kts
2026-05-05 06:42 24.42886 -97.41401 38801 ft 503 kts 360°
2026-05-05 06:42 24.46383 -97.41167 38830 ft 501 kts 359°
2026-05-05 06:42 24.49850 -97.40971 39055 ft 496 kts 359°
2026-05-05 06:43 24.53290 -97.40811 39115 ft 495 kts 358°
2026-05-05 06:43 24.56745 -97.40689 38911 ft 499 kts 358°
2026-05-05 06:43 24.60242 -97.40607 38790 ft 502 kts 357°
2026-05-05 06:43 24.63720 -97.40565 38921 ft 498 kts 356°
2026-05-05 06:44 24.67174 -97.40561 39106 ft 494 kts 355°
2026-05-05 06:44 24.74080 -97.40669 38835 ft 500 kts 354°
2026-05-05 06:45 24.80986 -97.40942 39016 ft 495 kts 353°
2026-05-05 06:45 24.84411 -97.41135 39127 ft 492 kts 353°
2026-05-05 06:45 24.87846 -97.41370 38990 ft 496 kts 352°
2026-05-05 06:45 24.91300 -97.41650 38812 ft 500 kts 352°
2026-05-05 06:46 24.94756 -97.41975 38880 ft 497 kts 351°
2026-05-05 06:46 24.98185 -97.42338 39090 ft 492 kts 350°
2026-05-05 06:46 25.01588 -97.42740 39117 ft 492 kts 349°
2026-05-05 06:46 25.05004 -97.43187 38936 ft 496 kts 349°
2026-05-05 06:47 25.08438 -97.43684 38830 ft 498 kts 348°
2026-05-05 06:47 25.11869 -97.44226 38970 ft 494 kts 348°
2026-05-05 06:47 25.15258 -97.44805 39153 ft 490 kts 347°
2026-05-05 06:48 25.21962 -97.46082 38914 ft 495 kts 346°
2026-05-05 06:48 25.28709 -97.47556 39083 ft 490 kts 344°
2026-05-05 06:48 25.30912 -97.48078 39188 ft 487 kts 343°
2026-05-05 06:49 25.35347 -97.49189 39118 ft 489 kts 343°
2026-05-05 06:49 25.38663 -97.50078 38965 ft 492 kts 342°
2026-05-05 06:49 25.41969 -97.51015 38993 ft 490 kts 341°
2026-05-05 06:49 25.45251 -97.51992 39163 ft 486 kts 341°
2026-05-05 06:50 25.48459 -97.52994 39230 ft 484 kts 340°
2026-05-05 06:50 25.51692 -97.54054 39124 ft 486 kts 339°
2026-05-05 06:50 25.54931 -97.55167 39028 ft 487 kts 339°
2026-05-05 06:51 25.61340 -97.57526 39227 ft 481 kts 336°
2026-05-05 06:51 25.67643 -97.60047 39100 ft 484 kts 335°
2026-05-05 06:52 25.73913 -97.62746 39133 ft 480 kts 334°
2026-05-05 06:52 25.76989 -97.64153 39270 ft 475 kts 333°
2026-05-05 06:52 25.79981 -97.65579 39138 ft 474 kts 332°
2026-05-05 06:52 25.83016 -97.67088 38784 ft 481 kts 332°
2026-05-05 06:53 25.86037 -97.68662 38711 ft 479 kts 330°
2026-05-05 06:53 25.89015 -97.70272 38940 ft 473 kts 330°
2026-05-05 06:53 25.91945 -97.71911 39084 ft 470 kts 329°
2026-05-05 06:53 25.94846 -97.73591 38912 ft 473 kts 328°
2026-05-05 06:54 25.97762 -97.75344 38695 ft 478 kts 327°
2026-05-05 06:54 26.03515 -97.78992 39007 ft 470 kts 326°
2026-05-05 06:55 26.09113 -97.82785 38817 ft 475 kts 324°
2026-05-05 06:55 26.11904 -97.84777 38667 ft 478 kts 323°
2026-05-05 06:55 26.14628 -97.86789 38844 ft 473 kts 322°
2026-05-05 06:55 26.17327 -97.88847 39075 ft 468 kts 321°
2026-05-05 06:56 26.19988 -97.90941 39021 ft 469 kts 320°
2026-05-05 06:56 26.22639 -97.93099 38765 ft 475 kts 320°
2026-05-05 06:56 26.25275 -97.95321 38706 ft 475 kts 319°
2026-05-05 06:56 26.27867 -97.97577 38943 ft 469 kts 318°
2026-05-05 06:57 26.30395 -97.99847 39121 ft 465 kts 317°
2026-05-05 06:57 26.32892 -98.02162 38983 ft 468 kts 316°
2026-05-05 06:57 26.35378 -98.04546 38765 ft 473 kts 315°
2026-05-05 06:58 26.39434 -98.08612 38954 ft 467 kts 314°
2026-05-05 06:58 26.42576 -98.11913 39142 ft 463 kts 313°
2026-05-05 06:58 26.44888 -98.14433 38958 ft 467 kts 311°
2026-05-05 06:58 26.47186 -98.17025 38801 ft 470 kts 311°
2026-05-05 06:59 26.49440 -98.19654 38897 ft 466 kts 310°
2026-05-05 06:59 26.50901 -98.21406 39058 ft 463 kts 309°
2026-05-05 06:59 26.53742 -98.24922 39145 ft 460 kts 308°
2026-05-05 06:59 26.55853 -98.27638 38938 ft 465 kts 307°
2026-05-05 07:00 26.57935 -98.30415 38828 ft 466 kts 306°
2026-05-05 07:00 26.59980 -98.33239 38965 ft 463 kts 306°
2026-05-05 07:00 26.61949 -98.36055 39152 ft 458 kts 304°
2026-05-05 07:01 26.65761 -98.41803 38937 ft 463 kts 303°
2026-05-05 07:01 26.69398 -98.47717 39061 ft 459 kts 301°
2026-05-05 07:01 26.71138 -98.50714 39172 ft 456 kts 300°
2026-05-05 07:02 26.72801 -98.53690 39109 ft 458 kts 299°
2026-05-05 07:02 26.74447 -98.56758 38953 ft 461 kts 298°
2026-05-05 07:02 26.76046 -98.59862 38967 ft 459 kts 297°
2026-05-05 07:02 26.77585 -98.62983 39126 ft 456 kts 296°
2026-05-05 07:03 26.79061 -98.66106 39207 ft 454 kts 295°
2026-05-05 07:03 26.81871 -98.72474 38983 ft 458 kts 294°
2026-05-05 07:04 26.84463 -98.78957 39143 ft 454 kts 291°
2026-05-05 07:04 26.86823 -98.85511 39064 ft 455 kts 290°
2026-05-05 07:05 26.88955 -98.92163 39103 ft 454 kts 288°
2026-05-05 07:05 26.90844 -98.98898 39144 ft 453 kts 284°
2026-05-05 07:06 26.92219 -99.04596 39016 ft 456 kts 284°
2026-05-05 07:06 26.93624 -99.11489 39087 ft 452 kts 282°
2026-05-05 07:07 26.94781 -99.18446 39003 ft 453 kts 280°
2026-05-05 07:07 26.95618 -99.25465 38976 ft 456 kts 277°
2026-05-05 07:08 26.96145 -99.32466 38951 ft 450 kts 275°
2026-05-05 07:08 26.96272 -99.35964 38788 ft 455 kts 272°
2026-05-05 07:08 26.96332 -99.39525 38760 ft 457 kts 271°
2026-05-05 07:08 26.96316 -99.43076 38964 ft 452 kts 270°
2026-05-05 07:09 26.96223 -99.46593 39110 ft 450 kts 270°
2026-05-05 07:09 26.96054 -99.50118 38955 ft 453 kts 268°
2026-05-05 07:09 26.95808 -99.53660 38731 ft 459 kts 267°
2026-05-05 07:10 26.95078 -99.60750 38982 ft 453 kts 264°
2026-05-05 07:10 26.94061 -99.67726 38868 ft 459 kts 263°
2026-05-05 07:11 26.92717 -99.74755 38913 ft 459 kts 259°
2026-05-05 07:11 26.91916 -99.78191 39073 ft 453 kts 257°
2026-05-05 07:11 26.91038 -99.81551 38909 ft 457 kts 257°
2026-05-05 07:11 26.90058 -99.84977 38591 ft 466 kts 255°
2026-05-05 07:12 26.88981 -99.88404 38595 ft 465 kts 253°
2026-05-05 07:12 26.87820 -99.91766 38884 ft 460 kts 252°
2026-05-05 07:12 26.86582 -99.95056 39039 ft 458 kts 250°
2026-05-05 07:12 26.85257 -99.98317 38819 ft 464 kts 249°
2026-05-05 07:13 26.83826 -100.01591 38567 ft 471 kts 247°
2026-05-05 07:13 26.80694 -100.07997 38953 ft 464 kts 244°
2026-05-05 07:14 26.77254 -100.14128 38760 ft 472 kts 241°
2026-05-05 07:14 26.76023 -100.16147 38595 ft 476 kts 240°
2026-05-05 07:14 26.73438 -100.20117 38739 ft 474 kts 237°
2026-05-05 07:14 26.71411 -100.23000 39013 ft 468 kts 236°
2026-05-05 07:15 26.69310 -100.25804 38969 ft 473 kts 235°
2026-05-05 07:15 26.67102 -100.28576 38687 ft 482 kts 231°
2026-05-05 07:15 26.64785 -100.31301 38664 ft 481 kts 231°
2026-05-05 07:15 26.62437 -100.33902 38834 ft 473 kts 228°
2026-05-05 07:16 26.61628 -100.34760 38832 ft 473 kts 229°
2026-05-05 07:16 26.57470 -100.38867 38315 ft 488 kts 224°
2026-05-05 07:16 26.54813 -100.41243 38432 ft 487 kts 224°
2026-05-05 07:16 26.52117 -100.43478 38743 ft 480 kts 221°
2026-05-05 07:17 26.49356 -100.45587 38718 ft 483 kts 219°
2026-05-05 07:17 26.46493 -100.47621 38445 ft 491 kts 216°
2026-05-05 07:17 26.43519 -100.49554 38356 ft 495 kts 214°
2026-05-05 07:17 26.40476 -100.51332 38620 ft 490 kts 213°
2026-05-05 07:18 26.37432 -100.52926 38648 ft 492 kts 210°
2026-05-05 07:18 26.34260 -100.54412 38253 ft 500 kts 209°
2026-05-05 07:18 26.30982 -100.55804 38014 ft 507 kts 204°
2026-05-05 07:18 26.27649 -100.57053 38378 ft 500 kts 204°
2026-05-05 07:19 26.24321 -100.58129 38767 ft 497 kts 201°
2026-05-05 07:19 26.20951 -100.59060 38666 ft 502 kts 198°
2026-05-05 07:19 26.17492 -100.59860 38265 ft 513 kts 196°
2026-05-05 07:20 26.10402 -100.60992 38707 ft 509 kts 191°
2026-05-05 07:20 26.06888 -100.61302 38930 ft 507 kts 189°
2026-05-05 07:20 26.03342 -100.61459 38692 ft 515 kts 186°
2026-05-05 07:20 25.99720 -100.61462 38298 ft 526 kts 184°
2026-05-05 07:21 25.96065 -100.61292 38445 ft 524 kts 181°
2026-05-05 07:21 25.92497 -100.60950 38897 ft 516 kts 179°
2026-05-05 07:21 25.88936 -100.60441 39041 ft 516 kts 176°
2026-05-05 07:22 25.84512 -100.59590 38522 ft 530 kts 173°
2026-05-05 07:22 25.80884 -100.58706 38284 ft 535 kts 171°
2026-05-05 07:22 25.77308 -100.57653 38682 ft 528 kts 168°
2026-05-05 07:22 25.73828 -100.56450 39062 ft 521 kts 166°
2026-05-05 07:23 25.71555 -100.55572 39053 ft 523 kts 164°
2026-05-05 07:23 25.70401 -100.55099 38932 ft 526 kts 163°
2026-05-05 07:23 25.63534 -100.51869 38437 ft 540 kts 158°
2026-05-05 07:23 25.60197 -100.50011 38840 ft 532 kts 156°
2026-05-05 07:24 25.56988 -100.48030 39111 ft 527 kts 153°
2026-05-05 07:24 25.53840 -100.45899 38901 ft 534 kts 150°
2026-05-05 07:24 25.50720 -100.43587 38523 ft 544 kts 148°
2026-05-05 07:25 25.44739 -100.38493 38986 ft 535 kts 143°
2026-05-05 07:25 25.41955 -100.35785 39149 ft 533 kts 140°
2026-05-05 07:25 25.39288 -100.32971 38839 ft 542 kts 137°
2026-05-05 07:25 25.36652 -100.29945 38547 ft 548 kts 135°
2026-05-05 07:26 25.34141 -100.26789 38712 ft 544 kts 132°
2026-05-05 07:26 25.31782 -100.23540 39073 ft 538 kts 130°
2026-05-05 07:26 25.29571 -100.20211 39162 ft 538 kts 127°
2026-05-05 07:26 25.27469 -100.16750 38908 ft 545 kts 124°
2026-05-05 07:27 25.26142 -100.14381 38747 ft 549 kts 122°
2026-05-05 07:27 25.21995 -100.05716 39126 ft 541 kts 116°
2026-05-05 07:28 25.19114 -99.97987 38796 ft 551 kts 111°
2026-05-05 07:28 25.16848 -99.89910 38909 ft 547 kts 105°
2026-05-05 07:28 25.15977 -99.85839 39067 ft 544 kts 102°
2026-05-05 07:29 25.15269 -99.81730 38947 ft 547 kts 99°
2026-05-05 07:29 25.14726 -99.77550 38725 ft 553 kts 97°
2026-05-05 07:29 25.14362 -99.73387 38763 ft 551 kts 94°
2026-05-05 07:29 25.14173 -99.69185 38989 ft 546 kts 91°
2026-05-05 07:30 25.14157 -99.65004 39061 ft 545 kts 88°
2026-05-05 07:30 25.14648 -99.56592 38697 ft 552 kts 82°
2026-05-05 07:30 25.15167 -99.52398 38820 ft 549 kts 79°
2026-05-05 07:31 25.15858 -99.48281 39028 ft 544 kts 77°
2026-05-05 07:31 25.16719 -99.44218 38992 ft 544 kts 73°
2026-05-05 07:31 25.18984 -99.36180 38695 ft 549 kts 68°
2026-05-05 07:32 25.19896 -99.33570 38805 ft 546 kts 65°
2026-05-05 07:32 25.21922 -99.28527 39044 ft 540 kts 62°
2026-05-05 07:32 25.22483 -99.27273 39038 ft 540 kts 60°